Weerstation Grootegast  Weerstation Grootegast


15 daagse weersverwachting Helsingborg (SE)

  • Overzicht
  • Per uur
  • 15 dagen
  • Extra
  • Vergelijk
  • Kaarten
  • Dagkaart
  • Meer »
  • Info
  • Statistieken
  • Directe link
    Temp 6h Neerslag Wind  
 05:48     20:39    Daglengte: 14:51 Morgen
02:00
17°
1.8 mm
4
warningclass
08:00
18°
6.2 mm
4
14:00
18°
11.2 mm
2
20:00
17°
14.2 mm
4
 05:50     20:37    Daglengte: 14:47 Maandag 19 Aug
02:00
16°
 
5
08:00
16°
 
6
14:00
20°
 
7
20:00
18°
7.0 mm
5
 05:52     20:34    Daglengte: 14:42 Dinsdag 20 Aug
02:00
15°
 
4
08:00
16°
 
5
14:00
20°
4.1 mm
5
20:00
17°
24.0 mm
3
Locatie info
Region: Skåne län
Latitude: 56.0440°N
Longitude: 12.6961°E
13 masl
Postcode: 252 24
Temp/Neerslag /Baro Onweer/Dauwpunt
    Temp Baro 1h Neerslag Dauwpunt Wind UV Bewolking  
 05:48     20:39    Daglengte: 14:51 Morgen
00:00
18°
1006.0 hPa
49%
16.2°
4
Windvlaag: 6.2 m/s
57%
01:00
18°
1005.8 hPa
18%
16.3°
4
Windvlaag: 5.2 m/s
55%
02:00
17°
1006.0 hPa 1.8 mm
82%
16.4°
4
Windvlaag: 4.9 m/s
72% warningclass
03:00
18°
1005.6 hPa 2.9 mm
82%
16.6°
4
Windvlaag: 5.4 m/s
90% warningclass
04:00
17°
1005.4 hPa 1.9 mm
82%
16.5°
4
Windvlaag: 5.4 m/s
83%
05:00
17°
1005.0 hPa 1.4 mm
82%
16.6°
4
Windvlaag: 7.4 m/s
73%
06:00
17°
1004.7 hPa
78%
16.5°
4
Windvlaag: 7.4 m/s
87%
07:00
17°
1004.4 hPa
78%
16.6°
4
Windvlaag: 6.7 m/s
90%
08:00
18°
1004.3 hPa
82%
16.5°
4
Windvlaag: 5.9 m/s
87%
09:00
18°
1004.2 hPa 2.1 mm
82%
16.2°
4
Windvlaag: 5.2 m/s
90%
10:00
18°
1004.4 hPa
82%
16.0°
4
Windvlaag: 4.4 m/s
91%
11:00
18°
1004.5 hPa 2.6 mm
82%
15.9°
4
Windvlaag: 4.6 m/s
91%
12:00
18°
1004.4 hPa 2.3 mm
82%
15.9°
3
Windvlaag: 4 m/s
91%
13:00
18°
1004.2 hPa 1.9 mm
82%
15.8°
2
Windvlaag: 3 m/s
91%
14:00
18°
1004.0 hPa 2.3 mm
82%
15.7°
2
Windvlaag: 2.1 m/s
91%
15:00
18°
1003.8 hPa 2.7 mm
82%
15.8°
3
Windvlaag: 3.5 m/s
91%
16:00
18°
1003.8 hPa 2.5 mm
82%
15.9°
3
Windvlaag: 2.8 m/s
91%
17:00
17°
1003.6 hPa 3.0 mm
82%
16.0°
4
Windvlaag: 3.1 m/s
91%
18:00
17°
1003.4 hPa 2.9 mm
82%
14.2°
4
Windvlaag: 5.5 m/s
91%
19:00
16°
1003.4 hPa 3.2 mm
82%
14.3°
4
Windvlaag: 6 m/s
90%
20:00
17°
1003.4 hPa
39%
15.1°
4
Windvlaag: 5 m/s
70%
21:00
17°
1003.7 hPa
27%
15.1°
4
Windvlaag: 6.9 m/s
35%
22:00
16°
1004.2 hPa
19%
14.7°
4
Windvlaag: 7.1 m/s
30%
23:00
16°
1004.9 hPa
24%
14.6°
4
Windvlaag: 7.1 m/s
9%
 05:50     20:37    Daglengte: 14:47 Maandag 19 Aug
00:00
16°
1005.5 hPa
19%
14.3°
4
Windvlaag: 6.3 m/s
8%
01:00
16°
1006.1 hPa
22%
13.9°
4
Windvlaag: 6 m/s
5%
02:00
16°
1006.8 hPa
20%
13.9°
5
Windvlaag: 5.6 m/s
22%
03:00
15°
1007.2 hPa
20%
13.7°
5
Windvlaag: 6.5 m/s
1%
04:00
15°
1007.2 hPa
19%
13.5°
4
Windvlaag: 6.2 m/s
1%
05:00
15°
1007.6 hPa
14%
13.4°
5
Windvlaag: 6.7 m/s
3%
06:00
15°
1008.1 hPa
14%
13.4°
5
Windvlaag: 7.5 m/s
6%
07:00
15°
1008.5 hPa
14%
13.2°
5
Windvlaag: 7.7 m/s
10%
08:00
16°
1009.0 hPa
15%
13.8°
6
Windvlaag: 8.5 m/s
4%
09:00
17°
1009.2 hPa
14%
14.3°
6
Windvlaag: 8.4 m/s
1%
10:00
18°
1009.6 hPa
21%
14.6°
6
Windvlaag: 8.4 m/s
3%
11:00
19°
1009.8 hPa
27%
14.6°
6
Windvlaag: 8.3 m/s
2%
12:00
19°
1010.0 hPa
35%
14.1°
6
Windvlaag: 8.5 m/s
11%
13:00
20°
1010.4 hPa
78%
13.4°
7
Windvlaag: 9.1 m/s
40%
14:00
20°
1010.8 hPa
78%
12.8°
7
Windvlaag: 9.5 m/s
31%
15:00
20°
1011.3 hPa
81%
13.2°
7
Windvlaag: 10.1 m/s
16%
16:00
20°
1011.7 hPa 3.5 mm
81%
13.2°
7
Windvlaag: 10.5 m/s
33%
17:00
18°
1012.3 hPa 3.5 mm
95%
15.1°
7
Windvlaag: 10.9 m/s
46%
18:00
18°
1012.4 hPa
96%
13.9°
5
Windvlaag: 10.3 m/s
22%
19:00
18°
1012.8 hPa
36%
15.2°
5
Windvlaag: 8.3 m/s
24%
20:00
18°
1013.2 hPa
82%
14.8°
5
Windvlaag: 6.9 m/s
7%
21:00
17°
1013.8 hPa
87%
13.5°
5
Windvlaag: 7.2 m/s
2%
22:00
17°
1014.4 hPa
47%
13.2°
5
Windvlaag: 7.7 m/s
2%
23:00
16°
1014.9 hPa
30%
13.0°
5
Windvlaag: 7.6 m/s
1%
 05:52     20:34    Daglengte: 14:42 Dinsdag 20 Aug
00:00
16°
1015.5 hPa
28%
13.0°
5
Windvlaag: 7.3 m/s
5%
01:00
16°
1016.0 hPa
27%
12.8°
5
Windvlaag: 6.8 m/s
2%
02:00
15°
1016.3 hPa
27%
12.8°
4
Windvlaag: 6.2 m/s
15%
03:00
15°
1016.5 hPa
28%
12.9°
4
Windvlaag: 5.9 m/s
3%
04:00
15°
1016.7 hPa
27%
12.7°
4
Windvlaag: 5.8 m/s
0%
05:00
15°
1017.0 hPa
24%
12.9°
4
Windvlaag: 5.9 m/s
1%
06:00
15°
1017.3 hPa
22%
13.1°
4
Windvlaag: 5.6 m/s
11%
07:00
15°
1017.6 hPa
22%
13.6°
4
Windvlaag: 5.8 m/s
13%
08:00
16°
1017.9 hPa
22%
13.9°
5
Windvlaag: 5.8 m/s
29%
09:00
16°
1018.4 hPa
28%
14.2°
5
Windvlaag: 6.5 m/s
68%
10:00
17°
1018.6 hPa
42%
14.8°
5
Windvlaag: 6.5 m/s
59%
11:00
18°
1018.9 hPa
86%
14.6°
5
Windvlaag: 6.5 m/s
65%
12:00
19°
1018.9 hPa
85%
14.4°
5
Windvlaag: 6 m/s
67%
13:00
19°
1019.0 hPa 4.1 mm
91%
15.3°
5
Windvlaag: 8.2 m/s
58%
14:00
20°
1019.2 hPa
98%
11.7°
5
Windvlaag: 7.4 m/s
44%
15:00
18°
1019.6 hPa 6.2 mm
100%
13.6°
5
Windvlaag: 0.9 m/s
19%
16:00
18°
1019.8 hPa 6.3 mm
100%
13.5°
4
Windvlaag: 0.7 m/s
19%
17:00
18°
1020.0 hPa 3.9 mm
100%
13.4°
4
Windvlaag: 0.6 m/s
25%
18:00
18°
1020.1 hPa 3.8 mm
100%
13.8°
4
Windvlaag: 0.7 m/s
43%
19:00
17°
1020.2 hPa 3.8 mm
100%
13.6°
3
Windvlaag: 0.8 m/s
17%
20:00
17°
1020.4 hPa
97%
13.7°
3
Windvlaag: 0.9 m/s
15%
21:00
16°
1020.9 hPa 18.1 mm
100%
13.2°
2
Windvlaag: 6.3 m/s
17%
22:00
16°
1021.2 hPa 18.1 mm
100%
13.1°
3
Windvlaag: 6.2 m/s
11%
23:00
15°
1021.5 hPa 18.1 mm
100%
13.1°
3
Windvlaag: 7.4 m/s
9%
Temp/Neerslag /Baro Onweer/Dauwpunt
    Temp Baro Neerslag Dauwpunt Wind Bewolking  
 05:48     20:39    Daglengte: 14:51 Morgen
02:00
17°
1006.0 hPa 1.8 mm 16.4°
4
72% warningclass
05:00
17°
1005.0 hPa 6.2 mm 16.6°
4
73%
08:00
18°
1004.3 hPa   16.5°
4
87%
11:00
18°
1004.5 hPa 4.7 mm 15.9°
4
91%
14:00
18°
1004.0 hPa 6.5 mm 15.7°
2
91%
17:00
17°
1003.6 hPa 8.1 mm 16.0°
4
91%
20:00
17°
1003.4 hPa 6.1 mm 15.1°
4
70%
23:00
16°
1004.9 hPa   14.6°
4
9%
 05:50     20:37    Daglengte: 14:47 Maandag 19 Aug
02:00
16°
1006.8 hPa   13.9°
5
22%
05:00
15°
1007.6 hPa   13.4°
5
3%
08:00
16°
1009.0 hPa   13.8°
6
4%
11:00
19°
1009.8 hPa   14.6°
6
2%
14:00
20°
1010.8 hPa   12.8°
7
31%
17:00
18°
1012.3 hPa 7.0 mm 15.1°
7
46%
20:00
18°
1013.2 hPa   14.8°
5
7%
23:00
16°
1014.9 hPa   13.0°
5
1%
 05:52     20:34    Daglengte: 14:42 Dinsdag 20 Aug
02:00
15°
1016.3 hPa   12.8°
4
15%
05:00
15°
1017.0 hPa   12.9°
4
1%
08:00
16°
1017.9 hPa   13.9°
5
29%
11:00
18°
1018.9 hPa   14.6°
5
65%
14:00
20°
1019.2 hPa 4.1 mm 11.7°
5
44%
17:00
18°
1020.0 hPa 16.4 mm 13.4°
4
25%
20:00
17°
1020.4 hPa 7.6 mm 13.7°
3
15%
23:00
15°
1021.5 hPa 54.2 mm 13.1°
3
9%
 05:54     20:32    Daglengte: 14:38 Woensdag 21 Aug
02:00
14°
1022.2 hPa 54.2 mm 12.9°
4
3%
05:00
14°
1023.8 hPa 16.3 mm 12.8°
4
31%
08:00
14°
1024.5 hPa 16.3 mm 12.8°
4
44%
11:00
16°
1025.3 hPa 16.4 mm 11.5°
4
24%
14:00
17°
1026.2 hPa 16.4 mm 9.6°
5
3%
17:00
17°
1026.2 hPa 16.4 mm 10.4°
3
43%
20:00
16°
1026.3 hPa 16.4 mm 11.1°
1
82%
23:00
15°
1026.7 hPa 16.4 mm 11.9°
2
49%
 05:56     20:29    Daglengte: 14:33 Donderdag 22 Aug
02:00
14°
1027.0 hPa 16.4 mm 12.6°
3
15%
05:00
15°
1026.8 hPa 16.4 mm 13.1°
3
51%
08:00
16°
1026.7 hPa 16.4 mm 13.8°
3
86%
11:00
17°
1026.4 hPa 16.4 mm 13.8°
4
89%
14:00
18°
1025.9 hPa 16.4 mm 13.7°
5
92%
17:00
18°
1024.8 hPa 17.0 mm 14.3°
5
81%
20:00
18°
1023.7 hPa 17.8 mm 14.7°
5
70%
23:00
18°
1023.4 hPa 17.9 mm 13.9°
5
80%
 05:58     20:27    Daglengte: 14:29 Vrijdag 23 Aug
02:00
17°
1023.1 hPa 18.0 mm 13.3°
5
90%
05:00
17°
1022.8 hPa 18.0 mm 13.7°
5
84%
08:00
17°
1022.6 hPa 18.0 mm 14.1°
5
77%
11:00
19°
1023.0 hPa 18.0 mm 14.7°
6
81%
14:00
20°
1023.3 hPa 18.0 mm 15.2°
6
85%
17:00
20°
1023.5 hPa 18.0 mm 15.6°
5
62%
20:00
19°
1023.7 hPa 18.0 mm 15.9°
4
39%
23:00
18°
1024.5 hPa 18.0 mm 15.7°
3
20%
 06:00     20:24    Daglengte: 14:24 Zaterdag 24 Aug
02:00
16°
1025.3 hPa 18.0 mm 15.4°
2
2%
05:00
17°
1025.7 hPa 18.0 mm 15.4°
2
41%
08:00
17°
1026.1 hPa 18.0 mm 15.5°
1
79%
11:00
18°
1026.2 hPa 18.0 mm 15.8°
2
78%
14:00
20°
1026.2 hPa 18.0 mm 16.0°
2
77%
17:00
19°
1025.3 hPa 18.0 mm 16.3°
2
39%
20:00
18°
1024.5 hPa 18.0 mm 16.4°
2
2%
23:00
17°
1024.6 hPa   15.9°
3
5%
 06:02     20:22    Daglengte: 14:20 Zondag 25 Aug
02:00
16°
1024.7 hPa 36.0 mm 15.4°
3
7%
08:00
17°
1023.6 hPa 36.0 mm 14.9°
4
69%
14:00
23°
1022.6 hPa 36.0 mm 16.3°
5
70%
20:00
19°
1021.0 hPa 36.0 mm 15.9°
6
0%
 06:04     20:19    Daglengte: 14:15 Maandag 26 Aug
02:00
17°
1020.2 hPa 36.0 mm 14.9°
6
4%
08:00
19°
1019.7 hPa 36.0 mm 15.7°
5
71%
14:00
23°
1020.1 hPa 36.0 mm 17.1°
2
53%
20:00
23°
1019.7 hPa 36.0 mm 17.4°
1
6%
 06:05     20:17    Daglengte: 14:12 Dinsdag 27 Aug
02:00
18°
1020.9 hPa 36.0 mm 16.6°
1
0%
08:00
19°
1021.2 hPa 36.0 mm 16.6°
1
1%
14:00
21°
1021.5 hPa 36.0 mm 17.7°
4
1%
20:00
18°
1017.5 hPa 0.4 mm 10.8°
2
25%
 06:07     20:14    Daglengte: 14:07 Woensdag 28 Aug
02:00
14°
1018.5 hPa 0.1 mm 10.2°
1
29%
08:00
15°
1018.3 hPa   10.8°
1
33%
14:00
21°
1018.1 hPa 0.3 mm 10.8°
2
32%
20:00
18°
1017.7 hPa 0.2 mm 10.7°
1
29%
 06:09     20:12    Daglengte: 14:03 Donderdag 29 Aug
02:00
14°
1018.1 hPa 0.1 mm 10.3°
1
31%
08:00
15°
1017.6 hPa   10.7°
1
19%
14:00
22°
1017.3 hPa 0.1 mm 10.7°
2
22%
20:00
18°
1016.3 hPa 0.2 mm 10.9°
1
28%
 06:11     20:09    Daglengte: 13:58 Vrijdag 30 Aug
02:00
14°
1016.4 hPa   10.0°
1
21%
08:00
15°
1015.7 hPa 0.9 mm 10.6°
1
28%
14:00
22°
1015.3 hPa 0.3 mm 9.8°
1
27%
20:00
17°
1014.4 hPa 0.5 mm 10.2°
1
24%
 06:13     20:07    Daglengte: 13:54 Zaterdag 31 Aug
02:00
13°
1014.8 hPa   9.4°
1
20%
08:00
14°
1014.3 hPa 0.3 mm 10.3°
1
25%
14:00
21°
1014.5 hPa 0.3 mm 9.9°
2
32%
20:00
17°
1014.0 hPa 0.1 mm 10.1°
1
26%
 06:15     20:04    Daglengte: 13:49 Zondag 01 Sep
02:00
13°
1014.2 hPa 0.2 mm 10.7°
2
29%
08:00
14°
1013.9 hPa 0.2 mm 10.8°
2
36%
14:00
19°
1014.0 hPa 0.3 mm 9.9°
3
40%
20:00
16°
1013.7 hPa 0.2 mm 10.1°
2
35%
  CAPE Lifted Index Hail Supercell Tornado SRH 3km CL BTM PRES CL TOP PRES Swiss DWD icon SMHI TS
 05:48     20:39    Daglengte: 14:51 Morgen
00:00 303 J/kg -1.1 K 0 % 0 % 0 % 0 m²/s² 0 0 -0.92 3
01:00 285 J/kg -1.5 K 0 % 0 % 0 % 0 m²/s² 0 0 0 3
02:00 316 J/kg -1.6 K 0 % 0 % 0 % 0 m²/s² 0 0 -1.18 95
03:00 294 J/kg -1.9 K 0 % 0 % 0 % 0 m²/s² 0 0 -1.9 95
04:00 193 J/kg -1.8 K 0 % 0 % 0 % 0 m²/s² 0 0 -0.3 80
05:00 77 J/kg -0.9 K 0 % 0 % 0 % 0 m²/s² 0 0 0.3 3
06:00 9 J/kg 0.4 K 0 % 0 % 0 % 0 m²/s² 0 0 0.61 3
07:00 0 J/kg 1.8 K 0 % 0 % 0 % 0 m²/s² 0 0 2.1 3
08:00 0 J/kg 2.5 K 0 % 0 % 0 % 0 m²/s² 0 0 4.63 3
09:00 0 J/kg 3.0 K 0 % 0 % 0 % 0 m²/s² 0 0 8.25 80
10:00 0 J/kg 4.4 K 0 % 0 % 0 % 0 m²/s² 0 0 8.03 80
11:00 22 J/kg 4.2 K 0 % 0 % 0 % 0 m²/s² 0 0 5.7 63
12:00 33 J/kg 3.6 K 0 % 0 % 0 % 0 m²/s² 0 0 3.63 61
13:00 27 J/kg 3.8 K 0 % 0 % 0 % 0 m²/s² 0 0 3.8 61
14:00 21 J/kg 3.1 K 0 % 0 % 0 % 0 m²/s² 0 0 3.1 61
15:00 55 J/kg 2.5 K 0 % 0 % 0 % 0 m²/s² 0 0 2.53 63
16:00 99 J/kg 1.7 K 0 % 0 % 0 % 0 m²/s² 0 0 1.7 63
17:00 137 J/kg 1.8 K 0 % 0 % 0 % 0 m²/s² 0 0 1.8 63
18:00 33 J/kg 3.2 K 0 % 0 % 0 % 0 m²/s² 0 0 3.2 61
19:00 1 J/kg 3.7 K 0 % 0 % 0 % 0 m²/s² 0 0 4 61
20:00 0 J/kg 3.4 K 0 % 0 % 0 % 0 m²/s² 0 0 4.45 3
21:00 0 J/kg 3.0 K 0 % 0 % 0 % 0 m²/s² 0 0 5.25 2
22:00 4 J/kg 1.9 K 0 % 0 % 0 % 0 m²/s² 0 0 2.83 3
23:00 11 J/kg 1.5 K 0 % 0 % 0 % 0 m²/s² 0 0 3.24 2
 05:50     20:37    Daglengte: 14:47 Maandag 19 Aug
00:00 1 J/kg 1.9 K 0 % 0 % 0 % 0 m²/s² 0 0 5.44 2
01:00 7 J/kg 1.7 K 0 % 0 % 0 % 0 m²/s² 0 0 6.29 2
02:00 29 J/kg 1.7 K 0 % 0 % 0 % 0 m²/s² 0 0 7.97 2
03:00 0 J/kg 2.4 K 0 % 0 % 0 % 0 m²/s² 0 0 6.84 2
04:00 0 J/kg 2.2 K 0 % 0 % 0 % 0 m²/s² 0 0 7.51 1
05:00 0 J/kg 1.3 K 0 % 0 % 0 % 0 m²/s² 0 0 6.04 1
06:00 0 J/kg 1.8 K 0 % 0 % 0 % 0 m²/s² 0 0 6.09 1
07:00 2 J/kg 1.5 K 0 % 0 % 0 % 0 m²/s² 0 0 5.67 1
08:00 141 J/kg -0.2 K 0 % 0 % 0 % 0 m²/s² 0 0 2.92 2
09:00 349 J/kg -1.1 K 0 % 0 % 0 % 0 m²/s² 0 0 2.02 2
10:00 556 J/kg -2.0 K 0 % 0 % 0 % 0 m²/s² 0 0 0.34 2
11:00 675 J/kg -2.5 K 0 % 0 % 0 % 0 m²/s² 0 0 -0.22 1
12:00 683 J/kg -2.6 K 0 % 0 % 0 % 0 m²/s² 0 0 -0.26 2
13:00 694 J/kg -2.7 K 0 % 0 % 0 % 0 m²/s² 0 0 1.65 2
14:00 516 J/kg -2.0 K 0 % 0 % 0 % 0 m²/s² 0 0 -0.83 2
15:00 419 J/kg -1.8 K 0 % 0 % 0 % 0 m²/s² 0 0 0.69 2
16:00 641 J/kg -2.6 K 0 % 0 % 0 % 0 m²/s² 0 0 -0.59 2
17:00 576 J/kg -2.4 K 0 % 0 % 0 % 0 m²/s² 0 0 -0.45 2
18:00 582 J/kg -2.3 K 0 % 0 % 0 % 0 m²/s² 0 0 -0.68 2
19:00 557 J/kg -2.1 K 0 % 0 % 0 % 0 m²/s² 0 0 -0.63 1
20:00 482 J/kg -2.0 K 0 % 0 % 0 % 0 m²/s² 0 0 0.07 1
21:00 367 J/kg -1.7 K 0 % 0 % 0 % 0 m²/s² 0 0 0.79 1
22:00 326 J/kg -1.5 K 0 % 0 % 0 % 0 m²/s² 0 0 1.05 1
23:00 256 J/kg -1.1 K 0 % 0 % 0 % 0 m²/s² 0 0 1.36 1
 05:52     20:34    Daglengte: 14:42 Dinsdag 20 Aug
00:00 221 J/kg -0.9 K 0 % 0 % 0 % 0 m²/s² 0 0 1.08 2
01:00 153 J/kg -0.4 K 0 % 0 % 0 % 0 m²/s² 0 0 1.85 2
02:00 88 J/kg 0.2 K 0 % 0 % 0 % 0 m²/s² 0 0 2.3 2
03:00 64 J/kg 0.4 K 0 % 0 % 0 % 0 m²/s² 0 0 2.14 2
04:00 24 J/kg 0.5 K 0 % 0 % 0 % 0 m²/s² 0 0 3.35 2
05:00 27 J/kg 0.6 K 0 % 0 % 0 % 0 m²/s² 0 0 3.27 1
06:00 96 J/kg 0.4 K 0 % 0 % 0 % 0 m²/s² 0 0 3.16 2
07:00 306 J/kg -1.0 K 0 % 0 % 0 % 0 m²/s² 0 0 1.52 1
08:00 374 J/kg -1.3 K 0 % 0 % 0 % 0 m²/s² 0 0 1.7 2
09:00 367 J/kg -1.1 K 0 % 0 % 0 % 0 m²/s² 0 0 1.51 2
10:00 632 J/kg -2.1 K 0 % 0 % 0 % 0 m²/s² 0 0 1.32 1
11:00 548 J/kg -1.7 K 0 % 0 % 0 % 0 m²/s² 0 0 2.53 1
12:00 297 J/kg -0.6 K 0 % 0 % 0 % 0 m²/s² 0 0 3.63 2
13:00 94 J/kg 1.3 K 0 % 0 % 0 % 0 m²/s² 0 0 6.22 3
14:00 21 J/kg 2.4 K 0 % 0 % 0 % 0 m²/s² 0 0 7.89 2
15:00 29 J/kg 2.4 K 0 % 0 % 0 % 0 m²/s² 0 0 7.44 2
16:00 59 J/kg 2.0 K 0 % 0 % 0 % 0 m²/s² 0 0 6.23 2
17:00 100 J/kg 1.1 K 0 % 0 % 0 % 0 m²/s² 0 0 5 80
18:00 150 J/kg 0.5 K 0 % 0 % 0 % 0 m²/s² 0 0 4.1 80
19:00 167 J/kg 0.0 K 0 % 0 % 0 % 0 m²/s² 0 0 3.51 80
20:00 110 J/kg 0.3 K 0 % 0 % 0 % 0 m²/s² 0 0 3 1
21:00 113 J/kg 0.3 K 0 % 0 % 0 % 0 m²/s² 0 0 3.81
22:00 145 J/kg 0.2 K 0 % 0 % 0 % 0 m²/s² 0 0 4.19
23:00 168 J/kg -0.1 K 0 % 0 % 0 % 0 m²/s² 0 0 4.31
Temp Baro Wind Neerslag
  EWN Forecast EWN WRFDA DWD ICON FMI HIRLAM MET Norway GFS
 05:48     20:39    Daglengte: 14:51 Morgen
02:00 17.4° 1006.0 hPa 3.5 m/s 1.8 mm 15.6° 1005.0 hPa 1.9 m/s 13.4 mm 17.1° 1006.3 hPa 3.2 m/s -0.9 mm 18.1° 1006.1 hPa 5.9 m/s 0.0 mm 17.5° 1005.9 hPa 3.0 m/s 0.0 mm 16.2° 1005.6 hPa 3.0 m/s
05:00 17.4° 1005.0 hPa 3.9 m/s 6.2 mm 15.9° 1004.0 hPa 1.8 m/s 20.1 mm 16.9° 1005.2 hPa 3.2 m/s 3.5 mm 17.5° 1005.4 hPa 3.6 m/s 0.0 mm 17.7° 1004.5 hPa 5.6 m/s 3.2 mm 15.9° 1005.3 hPa 1.5 m/s
08:00 17.6° 1004.3 hPa 3.8 m/s 0.0 mm 15.5° 1004.2 hPa 1.7 m/s 20.7 mm 17.4° 1004.3 hPa 3.6 m/s 0.1 mm 17.9° 1005.2 hPa 3.4 m/s 0.0 mm 18.2° 1004.0 hPa 3.9 m/s 0.0 mm 16.4° 1004.7 hPa 1.2 m/s
11:00 18.0° 1004.5 hPa 3.6 m/s 4.7 mm 17.0° 1004.5 hPa 1.4 m/s 20.7 mm 17.1° 1004.2 hPa 3.6 m/s 3.5 mm 18.2° 1005.6 hPa 4.7 m/s 0.0 mm 18.9° 1004.1 hPa 3.1 m/s 0.0 mm 18.1° 1004.8 hPa 3.1 m/s
14:00 18.2° 1004.0 hPa 2.2 m/s 6.5 mm 17.9° 1003.5 hPa 1.7 m/s 20.7 mm 17.3° 1003.2 hPa 1.7 m/s 3.8 mm 18.6° 1005.1 hPa 6.2 m/s 0.0 mm 19.1° 1004.0 hPa 1.8 m/s 0.0 mm 17.4° 1004.1 hPa 3.0 m/s
17:00 17.2° 1003.6 hPa 3.6 m/s 8.1 mm 16.8° 1003.8 hPa 2.5 m/s 22.8 mm 15.9° 1002.5 hPa 3.5 m/s 9.1 mm 18.0° 1004.5 hPa 3.7 m/s 0.0 mm 18.1° 1003.7 hPa 3.8 m/s 1.0 mm 15.1° 1004.1 hPa 2.5 m/s
20:00 16.6° 1003.4 hPa 3.6 m/s 6.1 mm 15.5° 1002.9 hPa 3.6 m/s 37.9 mm 15.9° 1003.6 hPa 3.0 m/s 2.8 mm 17.5° 1002.9 hPa 2.0 m/s 0.0 mm 17.5° 1003.4 hPa 5.4 m/s 0.9 mm 15.5° 1003.5 hPa 4.2 m/s
23:00 16.1° 1004.9 hPa 4.1 m/s 0.0 mm 15.2° 1004.0 hPa 5.4 m/s 39.5 mm 15.8° 1004.9 hPa 4.0 m/s 0.0 mm 17.5° 1004.1 hPa 1.0 m/s 0.0 mm 16.4° 1005.1 hPa 4.2 m/s 0.0 mm 15.2° 1004.9 hPa 5.5 m/s
 05:50     20:37    Daglengte: 14:47 Maandag 19 Aug
02:00 15.6° 1006.8 hPa 4.6 m/s 0.0 mm 14.5° 1005.3 hPa 5.5 m/s 39.5 mm 15.6° 1007.1 hPa 4.4 m/s 0.0 mm 16.5° 1005.5 hPa 4.6 m/s 0.0 mm 15.3° 1007.5 hPa 4.0 m/s 0.0 mm 14.7° 1006.5 hPa 6.0 m/s
05:00 15.0° 1007.6 hPa 4.7 m/s 0.0 mm 14.2° 1005.9 hPa 4.7 m/s 39.5 mm 14.9° 1008.0 hPa 3.7 m/s 0.0 mm 15.6° 1006.4 hPa 4.7 m/s 0.0 mm 14.6° 1008.5 hPa 4.7 m/s 0.0 mm 14.1° 1007.7 hPa 4.9 m/s
08:00 15.8° 1009.0 hPa 5.6 m/s 0.0 mm 15.7° 1007.0 hPa 5.2 m/s 39.5 mm 15.7° 1009.3 hPa 4.1 m/s 0.0 mm 15.8° 1007.5 hPa 4.6 m/s 0.0 mm 15.8° 1009.6 hPa 6.0 m/s 0.0 mm 15.9° 1008.9 hPa 6.4 m/s
11:00 18.5° 1009.8 hPa 5.7 m/s 0.0 mm 18.4° 1007.7 hPa 5.7 m/s 39.5 mm 18.9° 1009.8 hPa 5.1 m/s 0.0 mm 18.0° 1008.2 hPa 6.8 m/s 0.0 mm 19.1° 1010.6 hPa 5.3 m/s 0.0 mm 18.4° 1009.6 hPa 7.3 m/s
14:00 19.8° 1010.8 hPa 6.9 m/s 0.0 mm 19.7° 1008.9 hPa 5.7 m/s 42.7 mm 19.7° 1010.8 hPa 5.4 m/s 0.1 mm 19.8° 1009.7 hPa 8.6 m/s 0.0 mm 21.2° 1011.4 hPa 6.9 m/s 0.0 mm 19.1° 1011.0 hPa 7.7 m/s
17:00 18.3° 1012.3 hPa 6.8 m/s 7.0 mm 19.2° 1010.6 hPa 6.4 m/s 48.5 mm 19.4° 1012.0 hPa 5.2 m/s 0.3 mm 17.4° 1013.6 hPa 8.7 m/s 0.0 mm 18.7° 1012.3 hPa 7.4 m/s
20:00 17.7° 1013.2 hPa 4.6 m/s 0.0 mm 17.8° 1012.0 hPa 5.3 m/s 51.8 mm 18.1° 1012.7 hPa 4.6 m/s 0.0 mm 17.2° 1014.5 hPa 2.9 m/s 0.0 mm 16.9° 1013.6 hPa 6.7 m/s
23:00 16.5° 1014.9 hPa 5.0 m/s 0.0 mm 15.6° 1013.7 hPa 4.5 m/s 52.2 mm 16.3° 1014.6 hPa 4.5 m/s 0.0 mm 16.5° 1015.8 hPa 4.7 m/s 0.0 mm 15.1° 1015.4 hPa 5.6 m/s
 05:52     20:34    Daglengte: 14:42 Dinsdag 20 Aug
02:00 15.4° 1016.3 hPa 4.4 m/s 0.0 mm 14.4° 1015.2 hPa 4.3 m/s 52.2 mm 15.3° 1015.7 hPa 4.1 m/s 0.0 mm 15.4° 1016.9 hPa 3.8 m/s 0.0 mm 14.2° 1016.3 hPa 4.7 m/s
05:00 15.0° 1017.0 hPa 4.0 m/s 0.0 mm 13.5° 1015.4 hPa 3.7 m/s 52.2 mm 15.0° 1016.8 hPa 4.0 m/s 0.0 mm 15.0° 1017.5 hPa 3.6 m/s 0.0 mm 13.7° 1016.5 hPa 3.5 m/s
08:00 15.7° 1017.9 hPa 4.6 m/s 0.0 mm 15.7° 1015.6 hPa 5.0 m/s 52.2 mm 15.5° 1017.8 hPa 4.8 m/s 0.0 mm 15.7° 1018.7 hPa 3.4 m/s 0.0 mm 15.9° 1016.9 hPa 5.0 m/s
11:00 18.2° 1018.9 hPa 4.8 m/s 0.0 mm 18.6° 1016.1 hPa 6.4 m/s 52.2 mm 18.3° 1018.7 hPa 4.9 m/s 0.0 mm 18.3° 1019.3 hPa 3.6 m/s 0.0 mm 18.6° 1017.6 hPa 5.8 m/s
14:00 19.5° 1019.2 hPa 5.1 m/s 4.1 mm 19.4° 1017.3 hPa 4.8 m/s 53.3 mm 19.2° 1019.3 hPa 5.0 m/s 0.1 mm 20.9° 1019.5 hPa 5.9 m/s 0.8 mm 18.9° 1018.1 hPa 7.2 m/s
17:00 18.0° 1020.0 hPa 4.4 m/s 16.4 mm 19.6° 1017.6 hPa 2.6 m/s 53.5 mm 18.3° 1019.9 hPa 3.6 m/s 1.4 mm 17.4° 1020.5 hPa 5.3 m/s 0.4 mm 18.7° 1018.5 hPa 6.2 m/s
20:00 17.1° 1020.4 hPa 2.5 m/s 7.6 mm 18.0° 1018.0 hPa 3.6 m/s 54.0 mm 17.8° 1020.2 hPa 2.7 m/s 0.7 mm 16.4° 1021.0 hPa 2.2 m/s 0.3 mm 16.7° 1019.2 hPa 5.9 m/s
23:00 15.5° 1021.5 hPa 3.0 m/s 54.2 mm 16.1° 1019.6 hPa 3.6 m/s 54.2 mm 15.3° 1021.8 hPa 3.0 m/s 15.4° 1020.8 hPa 6.3 m/s
 05:54     20:32    Daglengte: 14:38 Woensdag 21 Aug
02:00 14.4° 1022.2 hPa 3.8 m/s 54.2 mm 15.1° 1020.1 hPa 4.2 m/s 54.2 mm 14.3° 1022.6 hPa 3.7 m/s 14.4° 1021.1 hPa 5.4 m/s
05:00 14.3° 1023.8 hPa 3.6 m/s 16.3 mm 14.4° 1024.0 hPa 3.4 m/s 13.7° 1021.4 hPa 5.5 m/s 16.3 mm
08:00 14.4° 1024.5 hPa 3.5 m/s 16.3 mm 14.4° 1024.7 hPa 3.3 m/s 15.0° 1022.5 hPa 5.9 m/s 16.3 mm
11:00 15.7° 1025.3 hPa 4.2 m/s 16.4 mm 15.7° 1025.5 hPa 3.9 m/s 16.1° 1023.5 hPa 6.9 m/s 16.4 mm
14:00 17.0° 1026.2 hPa 4.8 m/s 16.4 mm 17.0° 1026.3 hPa 4.6 m/s 16.6° 1024.5 hPa 6.6 m/s 16.4 mm
17:00 16.7° 1026.2 hPa 3.1 m/s 16.4 mm 16.7° 1026.3 hPa 2.9 m/s 17.2° 1024.6 hPa 5.2 m/s 16.4 mm
20:00 16.4° 1026.3 hPa 1.4 m/s 16.4 mm 16.4° 1026.4 hPa 1.2 m/s 15.9° 1025.2 hPa 3.6 m/s 16.4 mm
23:00 15.3° 1026.7 hPa 2.2 m/s 16.4 mm 15.3° 1026.7 hPa 2.1 m/s 14.9° 1026.6 hPa 2.8 m/s 16.4 mm
 05:56     20:29    Daglengte: 14:33 Donderdag 22 Aug
02:00 14.2° 1027.0 hPa 2.9 m/s 16.4 mm 14.2° 1027.0 hPa 3.0 m/s 13.9° 1026.9 hPa 1.7 m/s 16.4 mm
05:00 14.9° 1026.8 hPa 2.8 m/s 16.4 mm 15.1° 1026.8 hPa 3.0 m/s 13.2° 1026.4 hPa 1.1 m/s 16.4 mm
08:00 15.8° 1026.7 hPa 2.9 m/s 16.4 mm 15.9° 1026.7 hPa 3.0 m/s 14.2° 1026.8 hPa 2.0 m/s 16.4 mm
11:00 17.1° 1026.4 hPa 4.1 m/s 16.4 mm 17.1° 1026.3 hPa 4.2 m/s 16.6° 1027.0 hPa 3.4 m/s 16.4 mm
14:00 18.3° 1025.9 hPa 5.3 m/s 16.4 mm 18.3° 1025.9 hPa 5.4 m/s 18.4° 1026.4 hPa 3.7 m/s 16.4 mm
17:00 18.2° 1024.8 hPa 5.0 m/s 17.0 mm 18.2° 1024.7 hPa 5.1 m/s 18.6° 1025.8 hPa 4.1 m/s 17.0 mm
20:00 18.0° 1023.7 hPa 4.6 m/s 17.8 mm 18.1° 1023.5 hPa 4.8 m/s 16.6° 1025.6 hPa 2.6 m/s 17.8 mm
23:00 17.7° 1023.4 hPa 4.8 m/s 17.9 mm 17.9° 1023.1 hPa 4.9 m/s 15.6° 1026.7 hPa 3.9 m/s 17.9 mm
 05:58     20:27    Daglengte: 14:29 Vrijdag 23 Aug
02:00 17.4° 1023.1 hPa 5.0 m/s 18.0 mm 17.6° 1022.7 hPa 5.0 m/s 15.0° 1027.3 hPa 4.5 m/s 18.0 mm
05:00 17.2° 1022.8 hPa 5.1 m/s 18.0 mm 17.5° 1022.4 hPa 5.3 m/s 14.4° 1027.2 hPa 2.8 m/s 18.0 mm
08:00 17.1° 1022.6 hPa 5.3 m/s 18.0 mm 17.3° 1022.1 hPa 5.6 m/s 15.4° 1028.3 hPa 2.1 m/s 18.0 mm
11:00 18.8° 1023.0 hPa 5.9 m/s 18.0 mm 19.0° 1022.5 hPa 6.2 m/s 17.3° 1029.0 hPa 2.2 m/s 18.0 mm
14:00 20.4° 1023.3 hPa 6.3 m/s 18.0 mm 20.6° 1022.8 hPa 6.8 m/s 18.3° 1029.0 hPa 1.2 m/s 18.0 mm
17:00 19.9° 1023.5 hPa 5.1 m/s 18.0 mm 20.1° 1023.0 hPa 5.5 m/s 18.6° 1028.6 hPa 0.4 m/s 18.0 mm
20:00 19.3° 1023.7 hPa 3.9 m/s 18.0 mm 19.5° 1023.3 hPa 4.2 m/s 16.6° 1028.3 hPa 0.8 m/s 18.0 mm
23:00 17.8° 1024.5 hPa 3.1 m/s 18.0 mm 18.1° 1024.2 hPa 3.2 m/s 15.6° 1028.9 hPa 2.1 m/s 18.0 mm
 06:00     20:24    Daglengte: 14:24 Zaterdag 24 Aug
02:00 16.5° 1025.3 hPa 2.3 m/s 18.0 mm 16.6° 1025.0 hPa 2.2 m/s 14.9° 1029.0 hPa 3.4 m/s 18.0 mm
05:00 16.5° 1025.7 hPa 1.8 m/s 18.0 mm 16.7° 1025.5 hPa 1.6 m/s 14.3° 1028.5 hPa 3.9 m/s 18.0 mm
08:00 16.7° 1026.1 hPa 1.2 m/s 18.0 mm 16.8° 1025.9 hPa 1.0 m/s 15.6° 1028.3 hPa 3.9 m/s 18.0 mm
11:00 18.3° 1026.2 hPa 1.6 m/s 18.0 mm 18.2° 1026.0 hPa 1.4 m/s 19.4° 1028.8 hPa 3.9 m/s 18.0 mm
14:00 19.8° 1026.2 hPa 2.0 m/s 18.0 mm 19.7° 1026.1 hPa 1.8 m/s 21.2° 1027.9 hPa 4.1 m/s 18.0 mm
17:00 19.2° 1025.3 hPa 2.2 m/s 18.0 mm 19.0° 1025.2 hPa 2.0 m/s 21.0° 1027.0 hPa 4.6 m/s 18.0 mm
20:00 18.4° 1024.5 hPa 2.3 m/s 18.0 mm 18.4° 1024.3 hPa 2.1 m/s 18.6° 1026.7 hPa 4.1 m/s 18.0 mm
23:00 17.2° 1024.6 hPa 2.5 m/s 18.0 mm 17.4° 1024.4 hPa 2.3 m/s 15.9° 1027.2 hPa 5.2 m/s 18.0 mm
 06:02     20:22    Daglengte: 14:20 Zondag 25 Aug
02:00 16.2° 1024.7 hPa 2.7 m/s 18.0 mm 16.3° 1024.5 hPa 2.5 m/s 15.3° 1027.0 hPa 5.2 m/s 18.0 mm
08:00 16.6° 1023.6 hPa 4.1 m/s 18.0 mm 16.6° 1023.4 hPa 4.0 m/s 16.4° 1026.2 hPa 5.2 m/s 18.0 mm
14:00 22.7° 1022.6 hPa 5.1 m/s 18.0 mm 22.8° 1022.3 hPa 5.1 m/s 21.4° 1025.3 hPa 5.2 m/s 18.0 mm
20:00 19.3° 1021.0 hPa 6.0 m/s 18.0 mm 19.4° 1020.8 hPa 6.1 m/s 18.4° 1023.8 hPa 4.8 m/s 18.0 mm
 06:04     20:19    Daglengte: 14:15 Maandag 26 Aug
02:00 17.4° 1020.2 hPa 5.8 m/s 18.0 mm 17.6° 1019.9 hPa 6.0 m/s 15.1° 1023.0 hPa 4.0 m/s 18.0 mm
08:00 18.8° 1019.7 hPa 4.6 m/s 18.0 mm 19.0° 1019.5 hPa 4.6 m/s 16.8° 1021.4 hPa 4.1 m/s 18.0 mm
14:00 23.4° 1020.1 hPa 2.2 m/s 18.0 mm 23.7° 1020.0 hPa 2.1 m/s 20.0° 1020.9 hPa 2.8 m/s 18.0 mm
20:00 22.7° 1019.7 hPa 0.8 m/s 18.0 mm 23.1° 1019.6 hPa 0.8 m/s 18.5° 1020.5 hPa 1.2 m/s 18.0 mm
 06:05     20:17    Daglengte: 14:12 Dinsdag 27 Aug
02:00 17.5° 1020.9 hPa 1.2 m/s 18.0 mm 17.7° 1020.8 hPa 1.1 m/s 15.5° 1022.3 hPa 2.5 m/s 18.0 mm
08:00 18.6° 1021.2 hPa 1.4 m/s 18.0 mm 18.8° 1021.0 hPa 1.3 m/s 15.8° 1022.9 hPa 2.9 m/s 18.0 mm
14:00 21.4° 1021.5 hPa 3.6 m/s 18.0 mm 21.4° 1021.2 hPa 3.8 m/s 21.6° 1024.2 hPa 1.3 m/s 18.0 mm
20:00 17.6° 1017.5 hPa 2.0 m/s 0.4 mm
 06:07     20:14    Daglengte: 14:07 Woensdag 28 Aug
02:00 13.7° 1018.5 hPa 1.1 m/s 0.1 mm
08:00 14.8° 1018.3 hPa 1.0 m/s 0.0 mm
14:00 21.3° 1018.1 hPa 1.8 m/s 0.3 mm
20:00 17.5° 1017.7 hPa 1.2 m/s 0.2 mm
 06:09     20:12    Daglengte: 14:03 Donderdag 29 Aug
02:00 13.8° 1018.1 hPa 1.1 m/s 0.1 mm
08:00 14.8° 1017.6 hPa 1.3 m/s 0.0 mm
14:00 21.6° 1017.3 hPa 2.1 m/s 0.1 mm
20:00 17.7° 1016.3 hPa 1.4 m/s 0.2 mm
 06:11     20:09    Daglengte: 13:58 Vrijdag 30 Aug
02:00 13.7° 1016.4 hPa 1.0 m/s 0.0 mm
08:00 14.7° 1015.7 hPa 0.7 m/s 0.9 mm
14:00 21.6° 1015.3 hPa 1.4 m/s 0.3 mm
20:00 17.0° 1014.4 hPa 1.1 m/s 0.5 mm
 06:13     20:07    Daglengte: 13:54 Zaterdag 31 Aug
02:00 12.9° 1014.8 hPa 0.6 m/s 0.0 mm
08:00 14.4° 1014.3 hPa 0.7 m/s 0.3 mm
14:00 20.7° 1014.5 hPa 2.1 m/s 0.3 mm
20:00 16.6° 1014.0 hPa 1.4 m/s 0.1 mm
 06:15     20:04    Daglengte: 13:49 Zondag 01 Sep
02:00 13.2° 1014.2 hPa 1.5 m/s 0.2 mm
08:00 13.8° 1013.9 hPa 1.8 m/s 0.2 mm
14:00 19.1° 1014.0 hPa 2.8 m/s 0.3 mm
20:00 15.9° 1013.7 hPa 2.0 m/s 0.2 mm
FMI Hirlam - 7.5 km EWN WRFDA - 12 km DWD ICON - 7 km GFS - 25 km Basiskaart






























































Updatetijd (Europe/Amsterdam) Resolutie Lengte Stap
FMI Hirlam 19:00, 01:00, 07:00, 13:00 7.5 km 49h 1h
EWN WRFDA 21:30, 03:30, 09:30, 15:30 12 km 73h 1h
DWD ICON 23:45, 05:45, 11:45, 17:45 7 km 75h 1h
GFS 20:30, 02:30, 08:30, 14:30 25 km 237h 3h
30+ mm
25-30 mm
20-25 mm
15-20 mm
10-15 mm
6-10 mm
4-6 mm
2-4 mm
1-2 mm
0.5-1 mm
0.2-0.5 mm
0.1-0.2 mm
30+ mm
25-30 mm
20-25 mm
15-20 mm
10-15 mm
6-10 mm
4-6 mm
2-4 mm
1-2 mm
0.5-1 mm
0.2-0.5 mm
0.1-0.2 mm
Sneeuwval
Natte sneeuw
Hagel
Vorst
30+ mm
25-30 mm
20-25 mm
15-20 mm
10-15 mm
6-10 mm
4-6 mm
2-4 mm
1-2 mm
0.5-1 mm
0.2-0.5 mm
0.1-0.2 mm
Sneeuwval
Natte sneeuw
Hagel
Vorst
Onweer
50 mm
40 mm
30 mm
26 mm
22 mm
18 mm
14 mm
10 mm
9 mm
8 mm
7 mm
6 mm
5 mm
4.5 mm
4 mm
3.5 mm
3 mm
2.5 mm
2 mm
1.5 mm
1 mm
0.8 mm
0.6 mm
0.4 mm
0.2 mm
0.05 mm
35°
30°
25°
20°
15°
10°
-5°
-10°
-15°
-20°
-25°
-30°
-35°
33> m/s
29 m/s
25 m/s
21 m/s
17 m/s
14 m/s
11 m/s
8 m/s
5 m/s
3 m/s
0 m/s
2600 J/kg
2400 J/kg
2200 J/kg
2000 J/kg
1800 J/kg
1600 J/kg
1400 J/kg
1200 J/kg
1000 J/kg
800 J/kg
600 J/kg
400 J/kg
200 J/kg
70 dBZ
65 dBZ
60 dBZ
55 dBZ
50 dBZ
45 dBZ
40 dBZ
35 dBZ
30 dBZ
25 dBZ
20 dBZ
15 dBZ
10 dBZ
5 dBZ
-1 K
-2 K
-3 K
-4 K
-5 K
-6 K
-7 K
-8 K
-9 K
950 m²/s²
900 m²/s²
850 m²/s²
800 m²/s²
750 m²/s²
700 m²/s²
650 m²/s²
600 m²/s²
550 m²/s²
500 m²/s²
450 m²/s²
400 m²/s²
350 m²/s²
300 m²/s²
250 m²/s²
200 m²/s²
150 m²/s²
100 m²/s²
46 m/s
44 m/s
42 m/s
40 m/s
38 m/s
36 m/s
34 m/s
32 m/s
30 m/s
28 m/s
26 m/s
24 m/s
22 m/s
20 m/s
16 m/s
12 m/s
8 m/s
4 m/s
30 m/s
28 m/s
26 m/s
24 m/s
22 m/s
20 m/s
18 m/s
16 m/s
14 m/s
12 m/s
10 m/s
8 m/s
6 m/s
4 m/s
2 m/s
3.0
2.8
2.6
2.4
2.2
2.0
1.8
1.6
1.4
1.2
1.0
0.8
0.6
0.4
0.2
15
14
13
12
11
10
9
8
7
6
5
4
3
2
1
90%
80%
70%
60%
50%
40%
30%
20%
10%
42
40
38
36
34
32
30
28
26
24
22
20
18
16
14
12
90+ cm
80-90 cm
70-80 cm
60-70 cm
50-60 cm
40-50 cm
30-40 cm
20-30 cm
10-20 cm
1-10 cm
Sneeuwval
Natte sneeuw
Regen
>120 mm
115 mm
110 mm
105 mm
100 mm
95 mm
90 mm
85 mm